Location: Decatur Area Astronomy Club
(40.0275°N, 88.7810°W)
Time: 18:40:38
(UTC-05:00)

Amateur Radio Satellites - All Passes

Search period start: 23 April 2017 18:10
Search period end: 24 April 2017 18:10
Location: Decatur Area Astronomy Club, 40.0275°N, 88.7810°W

Satellite Date Start Highest point End Downlink Frequencies (MHz)
Time Altitude Azimuth
NUDT-PHONESAT 23 Apr 18:18:02 18:21:39 65° 76° (ENE) 18:25:18 437.300
CUTE-I 23 Apr 18:19:02 18:24:22 78° 74° (ENE) 18:29:43 437.470
KKS-1 23 Apr 18:20:36 18:24:37 34° 290° (WNW) 18:28:34 437.445
CUBESAT XI-V 23 Apr 18:23:39 18:27:55 35° 290° (WNW) 18:32:10 437.345
CUTE 1.7 + AOD 2 23 Apr 18:27:34 18:29:45 14° 65° (ENE) 18:31:57 437.475
YUBILEINY 23 Apr 18:37:00 18:41:01 14° 285° (WNW) 18:45:04 435.215
XW-2D 23 Apr 18:42:59 18:46:32 42° 261° (W) 18:50:07 145.860 - 145.880
DOVE 4 23 Apr 18:47:34 18:52:23 35° 264° (W) 18:57:14 437.250
XW-2B 23 Apr 18:49:56 18:53:24 36° 262° (W) 18:56:53 145.730 - 145.750
SEEDS 23 Apr 18:53:43 18:56:29 18° 67° (ENE) 18:59:17 437.485
CUBEBUG 2 23 Apr 18:56:16 18:58:34 14° 65° (ENE) 19:00:50 437.445
LilacSat-2 23 Apr 18:57:01 19:00:16 28° 264° (W) 19:03:33 437.200
HO-68 23 Apr 19:00:49 19:07:42 53° 68° (ENE) 19:14:37 435.675
XW-2C 23 Apr 19:02:04 19:05:12 25° 264° (W) 19:08:21 145.795 - 145.815
STARS 23 Apr 19:02:35 19:06:17 27° 292° (WNW) 19:09:57 437.465
KAITUO 1B 23 Apr 19:08:24 19:11:33 26° 264° (W) 19:14:42 145.475/437.950
STRAND 1 23 Apr 19:11:43 19:14:41 15° 91° (E) 19:17:40 437.568
RS-15 23 Apr 19:18:18 19:28:11 31° 257° (WSW) 19:37:43 29.354- 29.394
XW-2A 23 Apr 19:23:26 19:26:45 62° 76° (ENE) 19:30:04 145.665 - 145.685
XW-2F 23 Apr 19:32:06 19:33:36 12° 268° (W) 19:35:07 145.980 - 146.000
M-CUBED/EXP-1 PRIME 23 Apr 19:41:59 19:45:17 22° 98° (E) 19:48:24 437.505
ZACube-1 23 Apr 19:53:10 19:56:11 19° 67° (ENE) 19:59:11 437.345
CUTE 1.7 + AOD 2 23 Apr 20:01:04 20:05:08 50° 260° (W) 20:09:15 437.475
AO-73 23 Apr 20:01:54 20:05:08 22° 68° (ENE) 20:08:19 145.935
CUTE-I 23 Apr 20:02:46 20:04:58 12° 270° (W) 20:07:09 437.470
AAUSAT CUBESAT 2 23 Apr 20:10:36 20:14:39 61° 75° (ENE) 20:18:46 437.432
Oscar 11 23 Apr 20:21:07 20:24:52 30° 70° (ENE) 20:28:38 .
O/OREOS (USA 219) 23 Apr 20:22:21 20:26:17 27° 60° (ENE) 20:30:12 437.305
UWE-3 23 Apr 20:24:32 20:28:52 79° 76° (ENE) 20:33:06 435.000/436.395/437.385
SEEDS 23 Apr 20:27:59 20:31:52 38° 262° (W) 20:35:48 437.485
CUBEBUG 2 23 Apr 20:30:26 20:34:46 53° 260° (W) 20:39:00 437.445
NO-84 23 Apr 20:38:58 20:42:34 55° 134° (SE) 20:45:51 435.350 FM
STRAND 1 23 Apr 20:49:13 20:54:15 59° 287° (WNW) 20:59:14 437.568
HO-68 23 Apr 20:49:43 20:55:41 28° 265° (W) 21:01:42 435.675
M-CUBED/EXP-1 PRIME 23 Apr 21:15:59 21:19:45 30° 297° (WNW) 21:23:16 437.505
OBJECT BX 23 Apr 21:23:41 21:26:51 29° 71° (ENE) 21:30:03 145.990 - 145.960
AO-85 23 Apr 21:24:50 21:27:27 17° 46° (NE) 21:30:08 145.980
DELFI C3 23 Apr 21:25:45 21:29:31 44° 73° (ENE) 21:33:21 145.870
ZACube-1 23 Apr 21:28:24 21:32:15 33° 263° (W) 21:36:03 437.345
AO-73 23 Apr 21:37:31 21:41:12 29° 263° (W) 21:44:52 145.935
AAUSAT CUBESAT 2 23 Apr 21:50:09 21:50:30 10° 271° (W) 21:50:51 437.432
Oscar 11 23 Apr 21:57:39 22:01:00 22° 266° (W) 22:04:22 .
O/OREOS (USA 219) 23 Apr 22:01:43 22:05:38 28° 257° (WSW) 22:09:31 437.305
PRISM 23 Apr 22:07:20 22:11:02 30° 97° (E) 22:14:42 437.425
FO-29 23 Apr 22:16:32 22:20:18 20° 94° (E) 22:24:09 435.910
NO-84 23 Apr 22:17:47 22:20:16 18° 329° (NNW) 22:22:38 435.350 FM
BEESAT 3 23 Apr 22:21:50 22:23:37 13° 42° (NE) 22:25:24 437.485
LO-87 23 Apr 22:38:35 22:41:50 32° 72° (ENE) 22:45:06 145.935 - 145.965
ESTCUBE 1 23 Apr 22:49:28 22:53:15 27° 69° (ENE) 22:57:04 437.505/2401.250
TIGRISAT 23 Apr 22:53:43 22:57:56 59° 101° (E) 23:02:11 435.000
OBJECT BX 23 Apr 22:58:17 23:00:35 16° 267° (W) 23:02:54 145.990 - 145.960
DELFI C3 23 Apr 23:02:39 23:04:31 13° 269° (W) 23:06:25 145.870
AO-85 23 Apr 23:04:13 23:08:04 48° 242° (WSW) 23:12:05 145.980
SPROUT 23 Apr 23:11:23 23:12:54 12° 63° (ENE) 23:14:25 437.525
UNISAT 6 23 Apr 23:13:55 23:18:11 74° 284° (WNW) 23:22:29 437.425
VELOX 1 23 Apr 23:18:20 23:21:07 16° 64° (ENE) 23:23:53 145.980
EO-79 23 Apr 23:30:49 23:31:14 10° 90° (E) 23:31:40 145.935-145.965
50 SAT 23 Apr 23:37:03 23:37:40 10° 65° (ENE) 23:38:17 437.505
PRISM 23 Apr 23:42:58 23:46:07 21° 293° (WNW) 23:49:14 437.425
BEESAT 2 23 Apr 23:49:13 23:52:54 32° 51° (NE) 23:56:34 435.950
UKube-1 23 Apr 23:56:34 23:57:42 11° 62° (ENE) 23:58:51 .
BEESAT 3 23 Apr 23:57:42 00:01:44 78° 239° (WSW) 00:05:42 437.485
FO-29 24 Apr 00:00:42 00:05:38 46° 289° (WNW) 00:10:46 435.910
POLYITAN 1 24 Apr 00:06:13 00:09:51 28° 96° (E) 00:13:26 437.675
QB50P2 24 Apr 00:12:27 00:16:19 35° 98° (E) 00:20:11 145.880/145.840
LO-87 24 Apr 00:13:14 00:15:21 15° 267° (W) 00:17:29 145.935 - 145.965
DX 1 24 Apr 00:19:48 00:23:33 28° 68° (ENE) 00:27:18 434.975-435.025
ESTCUBE 1 24 Apr 00:26:09 00:29:58 27° 264° (W) 00:33:49 437.505/2401.250
TIGRISAT 24 Apr 00:32:24 00:34:07 12° 296° (WNW) 00:35:51 435.000
AIST 2D 24 Apr 00:36:06 00:39:32 52° 284° (WNW) 00:42:57 435.315
NANOSAT C BR1 24 Apr 00:37:32 00:41:40 59° 100° (E) 00:45:46 145.865
SPROUT 24 Apr 00:44:00 00:48:15 64° 259° (W) 00:52:31 437.525
BUGSAT 1 24 Apr 00:49:32 00:52:36 21° 95° (E) 00:55:39 437.445
VELOX 1 24 Apr 00:52:51 00:57:09 47° 260° (W) 01:01:29 145.980
EO-79 24 Apr 01:03:14 01:07:23 62° 285° (WNW) 01:11:31 145.935-145.965
50 SAT 24 Apr 01:06:50 01:10:11 45° 261° (W) 01:13:33 437.505
DUCHIFAT 1 24 Apr 01:09:09 01:13:17 65° 286° (WNW) 01:17:24 145.980
Oscar 19 24 Apr 01:14:49 01:17:51 15° 91° (E) 01:20:51 437.125/150
BEESAT 2 24 Apr 01:27:20 01:30:29 22° 248° (WSW) 01:33:36 435.950
UKube-1 24 Apr 01:28:48 01:33:07 72° 258° (WSW) 01:37:28 .
POLYITAN 1 24 Apr 01:42:09 01:45:29 23° 292° (WNW) 01:48:48 437.675
ITUPSAT 1 24 Apr 01:47:43 01:50:26 15° 62° (ENE) 01:53:07 437.325
QB50P2 24 Apr 01:48:54 01:51:51 19° 293° (WNW) 01:54:47 145.880/145.840
DX 1 24 Apr 01:56:02 01:59:40 25° 264° (W) 02:03:20 434.975-435.025
NANOSAT C BR1 24 Apr 02:15:15 02:16:52 12° 297° (WNW) 02:18:28 145.865
BUGSAT 1 24 Apr 02:24:31 02:27:57 28° 290° (WNW) 02:31:22 437.445
Gurwin Techsat 1B 24 Apr 02:28:37 02:33:45 46° 99° (E) 02:38:49 435.225
BEESAT 24 Apr 02:44:36 02:49:14 57° 73° (ENE) 02:53:54 436.000
Oscar 19 24 Apr 02:52:24 02:57:33 62° 287° (WNW) 03:02:40 437.125/150
MOZHAYETS 4 24 Apr 03:06:11 03:10:26 42° 72° (ENE) 03:14:44
NO-84 24 Apr 03:14:03 03:16:27 23° 34° (NNE) 03:18:48 435.350 FM
PCSat 24 Apr 03:17:01 03:22:25 81° 117° (ESE) 03:27:52 145.827
ITUPSAT 1 24 Apr 03:23:03 03:27:44 59° 259° (W) 03:32:27 437.325
KKS-1 24 Apr 03:42:16 03:45:27 19° 66° (ENE) 03:48:39 437.445
YUBILEINY 24 Apr 03:42:47 03:49:20 25° 81° (E) 03:55:54 435.215
CUBESAT XI-V 24 Apr 03:49:40 03:53:08 21° 66° (ENE) 03:56:39 437.345
Gurwin Techsat 1B 24 Apr 04:09:18 04:13:21 23° 296° (WNW) 04:17:23 435.225
AO-7 24 Apr 04:10:23 04:18:27 52° 102° (ESE) 04:26:30 .
ITAMSAT 1 24 Apr 04:11:18 04:16:27 65° 102° (ESE) 04:21:35 435.822/435.867
STARS 24 Apr 04:22:28 04:25:52 22° 67° (ENE) 04:29:17 437.465
BEESAT 24 Apr 04:24:47 04:27:21 14° 268° (W) 04:29:55 436.000
MOZHAYETS 4 24 Apr 04:44:41 04:47:46 18° 267° (W) 04:50:52
NO-84 24 Apr 04:51:33 04:53:53 23° 231° (SW) 04:56:13 435.350 FM
PCSat 24 Apr 05:02:58 05:06:29 17° 316° (NW) 05:10:01 145.827
KKS-1 24 Apr 05:17:31 05:21:43 39° 261° (W) 05:25:56 437.445
CUBESAT XI-V 24 Apr 05:25:57 05:30:15 38° 263° (W) 05:34:36 437.345
YUBILEINY 24 Apr 05:36:40 05:45:18 68° 280° (W) 05:53:59 435.215
ITAMSAT 1 24 Apr 05:52:15 05:55:21 16° 299° (WNW) 05:58:27 435.822/435.867
STARS 24 Apr 05:58:01 06:02:01 33° 263° (W) 06:06:01 437.465
SO-50 24 Apr 06:01:10 06:02:08 11° 107° (ESE) 06:03:06 436.795
AO-7 24 Apr 06:03:34 06:10:55 37° 300° (WNW) 06:18:17 .
XW-2D 24 Apr 06:16:33 06:19:19 19° 94° (E) 06:22:05 145.860 - 145.880
XW-2B 24 Apr 06:23:12 06:26:13 22° 95° (E) 06:29:14 145.730 - 145.750
M-CUBED/EXP-1 PRIME 24 Apr 06:26:02 06:29:59 29° 63° (ENE) 06:34:00 437.505
STRAND 1 24 Apr 06:26:45 06:30:35 22° 65° (ENE) 06:34:28 437.568
LilacSat-2 24 Apr 06:30:23 06:33:45 29° 96° (E) 06:37:07 437.200
XW-2C 24 Apr 06:34:39 06:38:03 31° 97° (E) 06:41:27 145.795 - 145.815
CUTE-I 24 Apr 06:37:05 06:41:48 32° 96° (E) 06:46:30 437.470
KAITUO 1B 24 Apr 06:39:46 06:43:02 28° 96° (E) 06:46:19 145.475/437.950
DOVE 4 24 Apr 06:47:10 06:51:53 73° 101° (ESE) 06:56:16 437.250
XW-2F 24 Apr 07:02:08 07:05:55 68° 101° (E) 07:09:42 145.980 - 146.000
NUDT-PHONESAT 24 Apr 07:22:42 07:26:25 79° 286° (WNW) 07:30:08 437.300
RS-15 24 Apr 07:25:53 07:37:13 52° 110° (ESE) 07:48:53 29.354- 29.394
SO-50 24 Apr 07:37:19 07:41:56 80° 303° (WNW) 07:46:31 436.795
YUBILEINY 24 Apr 07:40:34 07:43:58 13° 302° (WNW) 07:47:22 435.215
CUTE 1.7 + AOD 2 24 Apr 07:46:37 07:50:20 28° 96° (E) 07:54:01 437.475
XW-2D 24 Apr 07:50:15 07:53:31 27° 289° (WNW) 07:56:46 145.860 - 145.880
XW-2B 24 Apr 07:57:15 08:00:20 24° 290° (WNW) 08:03:24 145.730 - 145.750
M-CUBED/EXP-1 PRIME 24 Apr 08:00:16 08:04:16 30° 259° (W) 08:08:23 437.505
STRAND 1 24 Apr 08:04:36 08:09:28 44° 261° (W) 08:14:21 437.568
LilacSat-2 24 Apr 08:05:07 08:07:50 19° 292° (WNW) 08:10:33 437.200
XW-2C 24 Apr 08:09:28 08:12:01 17° 292° (WNW) 08:14:34 145.795 - 145.815
SEEDS 24 Apr 08:12:05 08:16:00 34° 97° (E) 08:19:53 437.485
KAITUO 1B 24 Apr 08:14:11 08:16:51 19° 292° (WNW) 08:19:31 145.475/437.950
UWE-3 24 Apr 08:15:45 08:18:16 15° 93° (E) 08:20:48 435.000/436.395/437.385
HO-68 24 Apr 08:16:25 08:23:31 59° 102° (ESE) 08:30:36 435.675
CUTE-I 24 Apr 08:17:08 08:21:47 31° 293° (WNW) 08:26:24 437.470
XW-2A 24 Apr 08:18:23 08:21:44 74° 101° (ESE) 08:25:04 145.665 - 145.685
CUBEBUG 2 24 Apr 08:21:50 08:25:31 30° 97° (E) 08:29:14 437.445
DOVE 4 24 Apr 08:27:14 08:28:49 12° 300° (WNW) 08:30:23 437.250
PRISM 24 Apr 08:56:15 08:59:23 21° 67° (ENE) 09:02:32 437.425
ZACube-1 24 Apr 09:16:33 09:20:34 43° 99° (E) 09:24:38 437.345
SO-50 24 Apr 09:21:09 09:23:07 12° 321° (NW) 09:25:05 436.795
CUTE 1.7 + AOD 2 24 Apr 09:22:34 09:26:02 24° 291° (WNW) 09:29:29 437.475
AO-73 24 Apr 09:25:06 09:29:11 49° 100° (E) 09:33:19 145.935
Tancredo 1 24 Apr 09:27:38 09:30:42 74° 143° (SE) 09:33:49 437.200
ISS 24 Apr 09:28:00 09:31:10 56° 139° (SE) 09:34:22 437.550
AAUSAT CUBESAT 2 24 Apr 09:28:28 09:32:38 63° 285° (WNW) 09:36:46 437.432
RS-15 24 Apr 09:38:01 09:49:45 53° 313° (NW) 10:01:50 29.354- 29.394
Oscar 11 24 Apr 09:44:07 09:48:28 69° 102° (ESE) 09:52:47 .
SEEDS 24 Apr 09:48:21 09:51:26 20° 293° (WNW) 09:54:30 437.485
UWE-3 24 Apr 09:50:59 09:54:54 40° 287° (WNW) 09:58:51 435.000/436.395/437.385
TIGRISAT 24 Apr 09:51:30 09:55:43 47° 73° (ENE) 09:59:54 435.000
CUBEBUG 2 24 Apr 09:58:51 10:01:58 21° 292° (WNW) 10:05:06 437.445
HO-68 24 Apr 10:04:57 10:10:46 27° 300° (WNW) 10:16:34 435.675
FO-29 24 Apr 10:11:04 10:17:33 67° 74° (ENE) 10:23:18 435.910
UNISAT 6 24 Apr 10:11:38 10:16:05 87° 77° (ENE) 10:20:27 437.425
PCSat 24 Apr 10:25:10 10:26:18 11° 37° (NE) 10:27:25 145.827
OBJECT BX 24 Apr 10:26:11 10:29:40 41° 99° (E) 10:33:08 145.990 - 145.960
PRISM 24 Apr 10:30:47 10:34:27 31° 263° (W) 10:38:11 437.425
O/OREOS (USA 219) 24 Apr 10:33:45 10:37:53 34° 105° (ESE) 10:42:04 437.305
DELFI C3 24 Apr 10:37:45 10:41:47 82° 103° (ESE) 10:45:46 145.870
ZACube-1 24 Apr 10:53:59 10:56:31 16° 294° (WNW) 10:59:02 437.345
POLYITAN 1 24 Apr 10:58:31 11:01:37 20° 67° (ENE) 11:04:42 437.675
AO-73 24 Apr 11:02:48 11:05:01 14° 295° (WNW) 11:07:14 145.935
QB50P2 24 Apr 11:04:32 11:08:00 25° 69° (ENE) 11:11:28 145.880/145.840
Tancredo 1 24 Apr 11:04:41 11:06:57 18° 339° (NNW) 11:09:11 437.200
ISS 24 Apr 11:05:14 11:07:52 22° 337° (NNW) 11:10:28 437.550
AIST 2D 24 Apr 11:09:33 11:12:51 43° 74° (ENE) 11:16:10 435.315
Oscar 11 24 Apr 11:22:42 11:24:00 11° 297° (WNW) 11:25:19 .
NANOSAT C BR1 24 Apr 11:28:44 11:32:39 39° 72° (ENE) 11:36:34 145.865
TIGRISAT 24 Apr 11:30:10 11:32:38 15° 268° (W) 11:35:05 435.000
LO-87 24 Apr 11:39:12 11:42:37 42° 98° (E) 11:46:00 145.935 - 145.965
BUGSAT 1 24 Apr 11:39:18 11:41:41 15° 65° (ENE) 11:44:02 437.445
EO-79 24 Apr 11:54:24 11:58:37 86° 79° (E) 12:02:52 145.935-145.965
RS-15 24 Apr 11:56:55 12:06:10 23° 344° (NNW) 12:15:27 29.354- 29.394
FO-29 24 Apr 11:58:44 12:02:55 18° 267° (W) 12:06:49 435.910
DUCHIFAT 1 24 Apr 11:59:42 12:03:54 81° 76° (ENE) 12:08:06 145.980
OBJECT BX 24 Apr 12:01:25 12:02:58 12° 294° (WNW) 12:04:31 145.990 - 145.960
PCSat 24 Apr 12:05:34 12:10:56 56° 58° (ENE) 12:16:14 145.827
O/OREOS (USA 219) 24 Apr 12:13:39 12:17:21 23° 302° (WNW) 12:21:04 437.305
ESTCUBE 1 24 Apr 12:18:14 12:22:47 65° 102° (ESE) 12:27:16 437.505/2401.250
Oscar 19 24 Apr 12:30:46 12:34:40 22° 65° (ENE) 12:38:36 437.125/150
SPROUT 24 Apr 12:30:54 12:34:11 22° 94° (E) 12:37:27 437.525
50 SAT 24 Apr 12:32:59 12:33:55 11° 92° (E) 12:34:52 437.505
POLYITAN 1 24 Apr 12:33:21 12:37:10 33° 262° (W) 12:41:00 437.675
QB50P2 24 Apr 12:40:08 12:43:41 26° 264° (W) 12:47:15 145.880/145.840
VELOX 1 24 Apr 12:43:32 12:47:31 32° 97° (E) 12:51:28 145.980
ISS 24 Apr 12:44:18 12:45:17 11° 356° (N) 12:46:15 437.550
NANOSAT C BR1 24 Apr 13:05:48 13:08:29 17° 267° (W) 13:11:12 145.865
BUGSAT 1 24 Apr 13:12:40 13:16:40 45° 261° (W) 13:20:39 437.445
LO-87 24 Apr 13:14:26 13:15:40 11° 295° (WNW) 13:16:53 145.935 - 145.965
UKube-1 24 Apr 13:17:15 13:20:22 19° 94° (E) 13:23:26 .
AO-85 24 Apr 13:17:39 13:21:55 58° 119° (ESE) 13:25:56 145.980
AO-7 24 Apr 13:21:12 13:25:21 15° 47° (NE) 13:29:29 .
DX 1 24 Apr 13:43:50 13:48:09 56° 101° (E) 13:52:24 434.975-435.025
BEESAT 3 24 Apr 13:47:40 13:50:29 19° 111° (ESE) 13:53:21 437.485
Gurwin Techsat 1B 24 Apr 13:48:56 13:54:12 69° 73° (ENE) 13:59:30 435.225
PCSat 24 Apr 13:50:03 13:53:50 20° 255° (WSW) 13:57:38 145.827
ITAMSAT 1 24 Apr 13:53:08 13:55:02 12° 59° (ENE) 13:56:56 435.822/435.867
YUBILEINY 24 Apr 13:55:24 13:57:15 11° 56° (NE) 13:59:05 435.215
ESTCUBE 1 24 Apr 13:56:57 13:59:00 13° 297° (WNW) 14:01:03 437.505/2401.250
50 SAT 24 Apr 14:03:46 14:07:03 39° 287° (WNW) 14:10:19 437.505
SPROUT 24 Apr 14:06:24 14:10:06 30° 290° (WNW) 14:13:48 437.525
Oscar 19 24 Apr 14:08:45 14:13:40 45° 261° (W) 14:18:38 437.125/150
RS-15 24 Apr 14:15:07 14:24:46 25° 20° (NNE) 14:34:11 29.354- 29.394
Tancredo 1 24 Apr 14:18:47 14:20:48 16° 19° (NNE) 14:22:50 437.200
VELOX 1 24 Apr 14:20:19 14:23:47 23° 293° (WNW) 14:27:13 145.980
ISS 24 Apr 14:20:46 14:22:50 16° 17° (NNE) 14:24:54 437.550
SO-50 24 Apr 14:30:54 14:32:27 11° 38° (NE) 14:34:00 436.795
BEESAT 24 Apr 14:46:40 14:49:22 15° 92° (E) 14:52:03 436.000
UKube-1 24 Apr 14:52:31 14:56:28 35° 290° (WNW) 15:00:23 .
AO-85 24 Apr 15:00:04 15:02:36 15° 315° (NW) 15:05:05 145.980
AO-7 24 Apr 15:08:23 15:16:34 66° 67° (ENE) 15:24:45 .
BEESAT 2 24 Apr 15:16:47 15:20:44 72° 120° (ESE) 15:24:44 435.950
DX 1 24 Apr 15:21:39 15:23:50 14° 297° (WNW) 15:26:01 434.975-435.025
ITUPSAT 1 24 Apr 15:24:10 15:28:35 36° 98° (E) 15:32:57 437.325
BEESAT 3 24 Apr 15:24:11 15:27:49 35° 308° (NW) 15:31:31 437.485
ITAMSAT 1 24 Apr 15:28:31 15:33:44 88° 255° (WSW) 15:38:57 435.822/435.867
Gurwin Techsat 1B 24 Apr 15:31:55 15:34:37 14° 270° (W) 15:37:21 435.225
YUBILEINY 24 Apr 15:47:30 15:56:09 60° 78° (ENE) 16:04:48 435.215
Tancredo 1 24 Apr 15:54:01 15:57:08 82° 37° (NE) 16:00:14 437.200
ISS 24 Apr 15:56:34 15:59:49 66° 36° (NE) 16:03:02 437.550
SO-50 24 Apr 16:09:11 16:13:42 74° 57° (ENE) 16:18:11 436.795
BEESAT 24 Apr 16:22:48 16:27:28 55° 287° (WNW) 16:32:06 436.000
RS-15 24 Apr 16:28:27 16:40:38 61° 50° (NE) 16:52:11 29.354- 29.394
MOZHAYETS 4 24 Apr 16:38:18 16:42:55 75° 285° (WNW) 16:47:31
BEESAT 2 24 Apr 16:57:02 16:58:58 13° 318° (NW) 17:00:56 435.950
ITUPSAT 1 24 Apr 17:02:24 17:06:11 24° 294° (WNW) 17:09:58 437.325
AO-7 24 Apr 17:03:11 17:09:50 26° 265° (W) 17:16:31 .
XW-2B 24 Apr 17:06:16 17:06:55 10° 64° (ENE) 17:07:35 145.730 - 145.750
KKS-1 24 Apr 17:08:48 17:12:58 38° 98° (E) 17:17:06 437.445
LilacSat-2 24 Apr 17:12:58 17:14:54 14° 66° (ENE) 17:16:51 437.200
XW-2C 24 Apr 17:16:31 17:18:35 14° 67° (ENE) 17:20:39 145.795 - 145.815
KAITUO 1B 24 Apr 17:20:46 17:22:22 12° 66° (ENE) 17:23:59 145.475/437.950
CUBESAT XI-V 24 Apr 17:22:33 17:27:12 55° 100° (E) 17:31:49 437.345
ISS 24 Apr 17:34:26 17:35:53 12° 231° (SW) 17:37:21 437.550
XW-2F 24 Apr 17:42:36 17:45:47 28° 71° (ENE) 17:49:00 145.980 - 146.000
YUBILEINY 24 Apr 17:45:15 17:52:19 29° 277° (W) 17:59:25 435.215
STARS 24 Apr 17:47:27 17:51:38 43° 99° (E) 17:55:47 437.465
DOVE 4 24 Apr 17:50:28 17:55:44 69° 75° (ENE) 18:00:58 437.250
SO-50 24 Apr 17:52:17 17:53:31 11° 253° (WSW) 17:54:45 436.795
CUTE-I 24 Apr 17:58:03 18:03:12 50° 71° (ENE) 18:08:20 437.470
NUDT-PHONESAT 24 Apr 18:01:17 18:04:41 38° 73° (ENE) 18:08:07 437.300
